Camp Pendleton, CA

12:30 PM PST on February 19, 2017 (GMT -0800)
Camp Pendleton Marine Corps Air Station

Weather History for KNFG - January, 2013

Change the Weather History Date:

Saturday, January 5, 2013

  Actual Average Record
Temperature  
Mean Temperature 46 °F -  
Max Temperature 64 °F 64 °F 82 °F (2015)
Min Temperature 28 °F 38 °F 36 °F (2015)
Degree Days  
Heating Degree Days 19    
Moisture  
Dew Point 29 °F    
Average Humidity 60    
Maximum Humidity 79    
Minimum Humidity 20    
Precipitation  
Precipitation 0.00 in - - ()
Sea Level Pressure  
Sea Level Pressure 30.24 in    
Wind  
Wind Speed 1 mph (East)    
Max Wind Speed 8 mph    
Max Gust Speed -    
Visibility 10 miles    
Events      
Averages and records for this station are not official NWS values.
T = Trace of Precipitation, MM = Missing Value Source: NWS Daily Summary

Daily Weather History Graph

Daily Weather History Graph

Search for Another Location

Airport or City:

Trip Planner

Search our weather history database for the weather conditions in past years. The results will help you decide how hot, cold, wet, or windy it might be!

Date:

Astronomy

Jan. 05, 2013 Rise Set
Actual Time 6:53 AM PST 4:56 PM PST
Civil Twilight 6:26 AM PST 5:23 PM PST
Nautical Twilight 5:55 AM PST 5:54 PM PST
Astronomical Twilight 5:25 AM PST 6:24 PM PST
Moon 12:15 AM PST (1/5) 11:40 AM PST (1/5)
Length of Visible Light 10h 57m
Length of Day
10h 02m
Last Quarter, 43% of the Moon is Illuminated
Jan 5
Last Quarter
Jan 11
New
Jan 18
First Quarter
Jan 26
Full
Feb 3
Last Quarter

Hourly Weather History & Observations

Time (PST) Temp. Windchill Dew Point Humidity Pressure Visibility Wind Dir Wind Speed Gust Speed Precip Events Conditions
12:54 AM 30.9 °F - 24.1 °F 76% 30.26 in 10.0 mi Calm Calm - N/A   Clear
1:54 AM 30.9 °F - 24.1 °F 76% 30.26 in 10.0 mi Calm Calm - N/A   Clear
2:54 AM 30.0 °F - 23.0 °F 75% 30.26 in 10.0 mi North - - N/A   Clear
3:54 AM 28.9 °F - 21.9 °F 75% 30.26 in 10.0 mi Calm Calm - N/A   Clear
4:54 AM 30.0 °F - 21.9 °F 72% 30.27 in 10.0 mi Calm Calm - N/A   Clear
5:54 AM 28.0 °F - 21.0 °F 75% 30.27 in 10.0 mi Calm Calm - N/A   Clear
6:54 AM 30.0 °F - 21.9 °F 72% 30.29 in 10.0 mi Calm Calm - N/A   Clear
7:54 AM 34.0 °F - 26.1 °F 73% 30.30 in 10.0 mi Calm Calm - N/A   Clear
8:54 AM 44.1 °F - 25.0 °F 47% 30.30 in 10.0 mi Calm Calm - N/A   Clear
9:54 AM 53.1 °F - 25.0 °F 34% 30.29 in 10.0 mi Calm Calm - N/A   Partly Cloudy
10:54 AM 62.1 °F - 19.9 °F 20% 30.26 in 10.0 mi Calm Calm - N/A   Partly Cloudy
11:54 AM 64.0 °F - 28.0 °F 26% 30.23 in 10.0 mi SW 8.1 mph - N/A   Partly Cloudy
12:54 PM 64.0 °F - 32.0 °F 30% 30.21 in 10.0 mi SW 8.1 mph - N/A   Scattered Clouds
1:54 PM 64.9 °F - 35.1 °F 33% 30.19 in 10.0 mi Variable 4.6 mph - N/A   Scattered Clouds
2:54 PM 63.0 °F - 37.9 °F 40% 30.18 in 10.0 mi SW 6.9 mph - N/A   Scattered Clouds
3:54 PM 60.1 °F - 36.0 °F 41% 30.19 in 10.0 mi Calm Calm - N/A   Scattered Clouds
4:54 PM 57.9 °F - 39.0 °F 49% 30.19 in 10.0 mi Variable 3.5 mph - N/A   Scattered Clouds
5:54 PM 51.1 °F - 39.0 °F 63% 30.19 in 10.0 mi East 4.6 mph - N/A   Clear
6:54 PM 46.9 °F - 37.0 °F 68% 30.20 in 10.0 mi NE 3.5 mph - N/A   Clear
7:54 PM 43.0 °F 41.3 °F 35.1 °F 74% 30.21 in 10.0 mi NE 3.5 mph - N/A   Clear
8:54 PM 42.1 °F - 34.0 °F 73% 30.22 in 10.0 mi Calm Calm - N/A   Clear
9:54 PM 39.0 °F - 33.1 °F 79% 30.24 in 10.0 mi Calm Calm - N/A   Clear
10:54 PM 39.0 °F 36.8 °F 33.1 °F 79% 30.24 in 10.0 mi NNE 3.5 mph - N/A   Clear
11:54 PM 39.0 °F 36.8 °F 33.1 °F 79% 30.23 in 10.0 mi ESE 3.5 mph - N/A   Clear